Location: Canyon Rim
(40.8777°N, 111.8641°W)
Time: 11:56:43
(UTC+00:00)

Envisat - Pass Details

Date: 23 April 2021
Orbit: 764 x 766 km, 98.1° (Epoch: 05 May)

Event Time Altitude Azimuth Distance (km) Brightness Sun altitude
Rises 11:45:21 0° 31° (NNE) 3,237 7.3 -9.7°
Reaches altitude 10° 11:48:34 10° 53° (NE) 2,305 7.0 -9.2°
Maximum altitude 11:51:40 16° 91° (E) 1,904 6.1 -8.7°
Drops below altitude 10° 11:54:47 10° 129° (SE) 2,295 5.8 -8.1°
Sets 11:57:57 0° 150° (SSE) 3,216 6.3 -7.6°
